TimeCDT,TemperatureF,Dew PointF,Humidity,Sea Level PressureIn,VisibilityMPH,Wind Direction,Wind SpeedMPH,Gust SpeedMPH,PrecipitationIn,Events,Conditions,WindDirDegrees,DateUTC
12:08 AM,73.0,50.2,44,-9999,-9999.0,South,8.1,-,N/A,,Unknown,180,2013-09-07 05:08:00
12:28 AM,72.0,50.2,46,-9999,-9999.0,South,9.2,-,N/A,,Unknown,170,2013-09-07 05:28:00
12:48 AM,72.0,49.1,44,-9999,-9999.0,South,9.2,-,N/A,,Unknown,180,2013-09-07 05:48:00
1:08 AM,-9999,-9999,N/A,-9999,-9999.0,North,-9999.0,-,N/A,,Unknown,0,2013-09-07 06:08:00
1:28 AM,71.1,48.0,44,-9999,-9999.0,South,10.4,-,N/A,,Unknown,180,2013-09-07 06:28:00
1:48 AM,72.0,48.0,43,-9999,-9999.0,South,9.2,-,N/A,,Unknown,190,2013-09-07 06:48:00
2:08 AM,71.1,48.0,44,-9999,-9999.0,South,9.2,-,N/A,,Unknown,190,2013-09-07 07:08:00
2:28 AM,70.0,47.1,44,-9999,-9999.0,SSW,9.2,-,N/A,,Unknown,200,2013-09-07 07:28:00
2:48 AM,72.0,47.1,41,-9999,-9999.0,SSW,10.4,-,N/A,,Unknown,210,2013-09-07 07:48:00
3:08 AM,73.9,48.0,40,-9999,-9999.0,SW,10.4,-,N/A,,Unknown,220,2013-09-07 08:08:00
3:28 AM,73.9,48.0,40,-9999,-9999.0,SW,8.1,-,N/A,,Unknown,220,2013-09-07 08:28:00
3:48 AM,73.0,48.0,41,-9999,-9999.0,SW,10.4,-,N/A,,Unknown,220,2013-09-07 08:48:00
4:08 AM,73.0,47.1,40,-9999,-9999.0,SW,10.4,-,N/A,,Unknown,220,2013-09-07 09:08:00
4:28 AM,73.0,49.1,43,-9999,-9999.0,SW,10.4,-,N/A,,Unknown,220,2013-09-07 09:28:00
4:48 AM,73.0,49.1,43,-9999,-9999.0,SW,11.5,-,N/A,,Unknown,220,2013-09-07 09:48:00
5:08 AM,73.0,49.1,43,-9999,-9999.0,SW,10.4,-,N/A,,Unknown,220,2013-09-07 10:08:00
5:28 AM,73.0,49.1,43,-9999,-9999.0,SSW,10.4,-,N/A,,Unknown,210,2013-09-07 10:28:00
5:48 AM,72.0,50.2,46,-9999,-9999.0,SW,8.1,-,N/A,,Unknown,220,2013-09-07 10:48:00
6:08 AM,72.0,50.2,46,-9999,-9999.0,SW,8.1,-,N/A,,Unknown,220,2013-09-07 11:08:00
6:28 AM,71.1,50.2,48,-9999,-9999.0,SW,8.1,-,N/A,,Unknown,220,2013-09-07 11:28:00
6:48 AM,70.0,50.2,49,-9999,-9999.0,SW,6.9,-,N/A,,Unknown,230,2013-09-07 11:48:00
7:08 AM,68.0,50.2,53,-9999,-9999.0,WSW,5.8,-,N/A,,Unknown,250,2013-09-07 12:08:00
7:28 AM,68.0,50.2,53,-9999,-9999.0,West,8.1,-,N/A,,Unknown,260,2013-09-07 12:28:00
7:48 AM,68.0,50.2,53,-9999,-9999.0,WSW,6.9,-,N/A,,Unknown,240,2013-09-07 12:48:00
8:08 AM,70.0,50.2,49,-9999,-9999.0,WSW,8.1,-,N/A,,Unknown,240,2013-09-07 13:08:00
8:28 AM,71.1,51.1,49,-9999,-9999.0,WSW,6.9,-,N/A,,Unknown,240,2013-09-07 13:28:00
8:48 AM,73.9,51.1,45,-9999,-9999.0,WSW,6.9,-,N/A,,Unknown,240,2013-09-07 13:48:00
9:08 AM,77.0,52.2,42,-9999,-9999.0,WSW,9.2,-,N/A,,Unknown,240,2013-09-07 14:08:00
9:28 AM,80.1,53.1,39,-9999,-9999.0,WSW,9.2,-,N/A,,Unknown,240,2013-09-07 14:28:00
9:48 AM,82.9,53.1,36,-9999,-9999.0,WSW,5.8,-,N/A,,Unknown,240,2013-09-07 14:48:00
10:08 AM,-9999,-9999,N/A,-9999,-9999.0,North,-9999.0,-,N/A,,Unknown,0,2013-09-07 15:08:00
10:28 AM,86.0,54.1,33,-9999,-9999.0,WSW,8.1,-,N/A,,Unknown,250,2013-09-07 15:28:00
10:48 AM,88.0,54.1,31,-9999,-9999.0,West,9.2,-,N/A,,Unknown,270,2013-09-07 15:48:00
11:08 AM,90.0,55.0,30,-9999,-9999.0,West,6.9,-,N/A,,Unknown,260,2013-09-07 16:08:00
11:28 AM,91.0,54.1,28,-9999,-9999.0,SW,6.9,-,N/A,,Unknown,230,2013-09-07 16:28:00
11:48 AM,93.0,55.0,28,-9999,-9999.0,South,5.8,-,N/A,,Unknown,180,2013-09-07 16:48:00
12:08 PM,93.0,55.0,28,-9999,-9999.0,South,5.8,-,N/A,,Unknown,170,2013-09-07 17:08:00
12:28 PM,95.0,53.1,24,-9999,-9999.0,South,15.0,-,N/A,,Unknown,170,2013-09-07 17:28:00
12:48 PM,95.0,54.1,25,-9999,-9999.0,SSE,12.7,-,N/A,,Unknown,150,2013-09-07 17:48:00
1:08 PM,95.0,53.1,24,-9999,-9999.0,South,12.7,-,N/A,,Unknown,170,2013-09-07 18:08:00
1:28 PM,96.1,53.1,23,-9999,-9999.0,SSE,12.7,-,N/A,,Unknown,160,2013-09-07 18:28:00
1:48 PM,96.1,54.1,24,-9999,-9999.0,South,12.7,-,N/A,,Unknown,180,2013-09-07 18:48:00
2:08 PM,96.1,52.2,23,-9999,-9999.0,South,9.2,-,N/A,,Unknown,180,2013-09-07 19:08:00
2:28 PM,97.0,54.1,24,-9999,-9999.0,SSE,11.5,-,N/A,,Unknown,150,2013-09-07 19:28:00
2:48 PM,97.0,53.1,23,-9999,-9999.0,SSE,17.3,-,N/A,,Unknown,160,2013-09-07 19:48:00
3:08 PM,98.1,53.1,22,-9999,-9999.0,SSE,12.7,-,N/A,,Unknown,150,2013-09-07 20:08:00
3:28 PM,97.0,51.1,21,-9999,-9999.0,South,11.5,-,N/A,,Unknown,190,2013-09-07 20:28:00
3:48 PM,97.0,53.1,23,-9999,-9999.0,SSE,17.3,-,N/A,,Unknown,150,2013-09-07 20:48:00
4:08 PM,98.1,53.1,22,-9999,-9999.0,South,12.7,-,N/A,,Unknown,170,2013-09-07 21:08:00
4:28 PM,95.0,52.2,23,-9999,-9999.0,South,12.7,-,N/A,,Unknown,180,2013-09-07 21:28:00
4:48 PM,96.1,53.1,23,-9999,-9999.0,SSE,9.2,-,N/A,,Unknown,160,2013-09-07 21:48:00
5:08 PM,96.1,53.1,23,-9999,-9999.0,SSE,12.7,-,N/A,,Unknown,150,2013-09-07 22:08:00
5:28 PM,96.1,52.2,23,-9999,-9999.0,South,12.7,-,N/A,,Unknown,170,2013-09-07 22:28:00
5:48 PM,95.0,55.0,26,-9999,-9999.0,SSE,10.4,-,N/A,,Unknown,160,2013-09-07 22:48:00
6:08 PM,95.0,53.1,24,-9999,-9999.0,South,11.5,-,N/A,,Unknown,180,2013-09-07 23:08:00
6:28 PM,93.9,52.2,24,-9999,-9999.0,South,10.4,-,N/A,,Unknown,190,2013-09-07 23:28:00
6:48 PM,93.0,54.1,27,-9999,-9999.0,SSE,8.1,-,N/A,,Unknown,160,2013-09-07 23:48:00
7:08 PM,91.0,54.1,28,-9999,-9999.0,SSE,8.1,-,N/A,,Unknown,160,2013-09-08 00:08:00
7:28 PM,89.1,54.1,30,-9999,-9999.0,South,5.8,-,N/A,,Unknown,170,2013-09-08 00:28:00
7:48 PM,84.9,54.1,35,-9999,-9999.0,SSE,5.8,-,N/A,,Unknown,160,2013-09-08 00:48:00
8:08 PM,81.0,54.1,39,-9999,-9999.0,SSE,5.8,-,N/A,,Unknown,160,2013-09-08 01:08:00
8:28 PM,79.0,54.1,42,-9999,-9999.0,SSE,5.8,-,N/A,,Unknown,150,2013-09-08 01:28:00
8:48 PM,79.0,53.1,40,-9999,-9999.0,SSE,6.9,-,N/A,,Unknown,150,2013-09-08 01:48:00
9:08 PM,79.0,53.1,40,-9999,-9999.0,SSE,8.1,-,N/A,,Unknown,150,2013-09-08 02:08:00
9:28 PM,75.9,53.1,45,-9999,-9999.0,SSE,8.1,-,N/A,,Unknown,160,2013-09-08 02:28:00
9:48 PM,77.0,53.1,43,-9999,-9999.0,SSE,9.2,-,N/A,,Unknown,160,2013-09-08 02:48:00
10:08 PM,73.9,52.2,46,-9999,-9999.0,SSE,8.1,-,N/A,,Unknown,160,2013-09-08 03:08:00
10:28 PM,73.0,52.2,48,-9999,-9999.0,SSE,8.1,-,N/A,,Unknown,160,2013-09-08 03:28:00
10:48 PM,73.9,51.1,45,-9999,-9999.0,South,9.2,-,N/A,,Unknown,170,2013-09-08 03:48:00
11:08 PM,73.9,51.1,45,-9999,-9999.0,South,8.1,-,N/A,,Unknown,180,2013-09-08 04:08:00
11:28 PM,73.9,50.2,43,-9999,-9999.0,South,8.1,-,N/A,,Unknown,180,2013-09-08 04:28:00
11:48 PM,75.0,50.2,42,-9999,-9999.0,South,9.2,-,N/A,,Unknown,180,2013-09-08 04:48:00